Regional Weather Roundup
Issued by NWS

Home | Current Version | Previous Version | Text Only | Print | Product List | Glossary On
Versions: 1 2 3 4 5 6 7 8 9 10 11 12 13 14 15 16 17 18 19 20 21 22 23 24 25 26 27 28 29 30 31 32 33 34 35 36 37 38 39 40 41 42 43 44 45 46 47 48 49 50
000
ASUS45 KABQ 281810
RWRNM
NEW MEXICO REGIONAL WEATHER ROUNDUP
NATIONAL WEATHER SERVICE ALBUQUERQUE NM
1200 PM MDT SAT MAY 28 2016

NOTE: "FAIR" MEANS FEW OR NO CLOUDS BELOW 12,000 FEET AGL WITH NO
       SIGNIFICANT WEATHER OR OBSTRUCTIONS TO VISION.

      THIS PRODUCT IS RELEASED AS TWO VERSIONS.  ONE VERSION NEAR
      THE TOP OF THE HOUR CONTAINING PRELIMINARY DATA FROM ALBUQUERQUE
      AND OTHER STATIONS.  A FINAL VERSION WITH ADDITIONAL DATA IS
      ISSUED ABOUT 10 MINUTES AFTER THE HOUR.

NMZ501-503-504-510>518-281900-
NORTHWEST PLATEAU/NORTHCENTRAL MOUNTAINS

CITY           SKY/WX    TMP DP  RH WIND       PRES   REMARKS
FARMINGTON     FAIR      70  22  16 VRB5      30.09S
6HR MIN TEMP:  40; 6HR MAX TEMP:  70;

LOS ALAMOS     PTSUNNY   64  26  23 E6        30.18F
SANTA FE       FAIR      72  20  14 SW12      30.13F
6HR MIN TEMP:  41; 6HR MAX TEMP:  72;

TAOS           FAIR      63  28  27 W6        30.18S
ANGEL FIRE     FAIR      57  28  32 W14G24    30.22S

$$
NMZ402-403-502-505>509-281900-
WESTCENTRAL MOUNTAINS/SOUTHWEST MOUNTAINS

CITY           SKY/WX    TMP DP  RH WIND       PRES   REMARKS
GALLUP         CLOUDY    67  26  21 S5        30.13R
6HR MIN TEMP:  38; 6HR MAX TEMP:  69;

GRANTS         FAIR      71  22  16 CALM      30.15S
SILVER CITY      N/A     75  16  10 SE16G22   30.10S

$$
NMZ407-409-411-412-281900-
SOUTHERN DESERTS

CITY           SKY/WX    TMP DP  RH WIND       PRES   REMARKS
LORDSBURG      FAIR      81  23  12 SE13      30.01F
DEMING         FAIR      81  20  10 MISG      30.02F
6HR MIN TEMP:  43; 6HR MAX TEMP:  82;

LAS CRUCES     FAIR      81  19  10 S7        30.05F
HOLLOMAN AFB   FAIR      82  20  10 S10       30.01F
ALAMOGORDO     FAIR      82  23  11 S9G18     30.03F
T OR C         FAIR      78  22  12 S5        30.04F
6HR MIN TEMP:  55; 6HR MAX TEMP:  80;


$$
NMZ519>523-281900-
CENTRAL VALLEYS/CENTRAL HIGHLANDS

CITY           SKY/WX    TMP DP  RH WIND       PRES   REMARKS
ALBUQUERQUE    FAIR      74  22  14 CALM      30.09F
6HR MIN TEMP:  52; 6HR MAX TEMP:  75;

DOUBLE EAGLE   MOSUNNY   72  27  18 S7        30.12S
MORIARTY ARPT  FAIR      74  21  13 SW7       30.15S
6HR MIN TEMP:  29; 6HR MAX TEMP:  74;

CLINES CORNERS FAIR      67  20  16 VRB5G25   30.16S
6HR MIN TEMP:  42; 6HR MAX TEMP:  69;

BELEN          FAIR      74  22  14 CALM      30.09S
6HR MIN TEMP:  44; 6HR MAX TEMP:  76;

SOCORRO        FAIR      77  25  14 SE6       30.07F
6HR MIN TEMP:  51; 6HR MAX TEMP:  78;


$$
NMZ524>526-539-540-281900-
SOUTHCENTRAL MOUNTAINS

CITY           SKY/WX    TMP DP  RH WIND       PRES   REMARKS
RUIDOSO          N/A     68  27  21 E9G18     30.19S

$$
NMZ527>531-281900-
NORTHEAST HIGHLANDS/NORTHEAST PLAINS

CITY           SKY/WX    TMP DP  RH WIND       PRES   REMARKS
LAS VEGAS      PTSUNNY   65  50  59 S14       30.14F
6HR MIN TEMP:  37; 6HR MAX TEMP:  68;

RATON          FAIR      67  33  28 VRB3G17   30.10S
6HR MIN TEMP:  33; 6HR MAX TEMP:  68;

CLAYTON        FAIR      72  40  31 S13G21    30.08S
6HR MIN TEMP:  48; 6HR MAX TEMP:  73;


$$
NMZ532>537-281900-
EASTCENTRAL PLAINS

CITY           SKY/WX    TMP DP  RH WIND       PRES   REMARKS
TUCUMCARI      FAIR      77  37  23 VRB3      30.04F
6HR MIN TEMP:  46; 6HR MAX TEMP:  77;

CANNON AFB     FAIR      75  40  28 S8        30.07F
6HR MIN TEMP:  50; 6HR MAX TEMP:  75;

CLOVIS AIRPORT FAIR      75  43  31 SE6       30.07F

$$
NMZ028-029-538-281900-
SOUTHEAST PLAINS

CITY           SKY/WX    TMP DP  RH WIND       PRES   REMARKS
ROSWELL        FAIR      79  39  23 N6        30.03F
6HR MIN TEMP:  56; 6HR MAX TEMP:  79;

ARTESIA        FAIR      79  37  22 E7        30.03F
CARLSBAD       FAIR      80  33  18 N7        30.00F
6HR MIN TEMP:  58; 6HR MAX TEMP:  81;

HOBBS          SUNNY     82  32  16 SE12      30.04F


$$



USA.gov is the U.S. government's official web portal to all federal, state and local government web resources and services.